SL-14 R/B, 22188

Orbit data source: Space-Track

SL-14 R/B, 22188 is space debris in LEO originally from a launch on Tue, 20 Oct 1992 UTC launched from the Plesetsk Missile And Space Complex (PKMTR). Debris objects in space refer to the collection of defunct objects orbiting the Earth. Examples of debris include non-operational satellites, rocket bodies, and fragments generated from explosions, collisions, or faulty payload assembly.

Loading next visibility...
Identifier
22188, 1992-068G
Orbit
LEO
Country
Flag of CISCIS
Related business
Manufacturer
Yuzhnoe
Mission
Spacecraft
Bus & Motor
S5M, Unknown motor
Mass
1,600 kg wet, 1,600 kg dry
Launch date (UTC)
1992-10-20 (33 years ago)
Launch vehicle
Unknown
Launch site
Plesetsk Missile And Space Complex (PKMTR)
Object type
Payload
Rocket body
Debris
Shape & HBR
Cyl, 1.4 m
Radar Cross Section
7.351 m², Large (>1 m²)

Expand to show TLE details & history
Last TLE update: 15 hours ago

TLE from 15 hours ago
0 SL-14 R/B
1 22188U 92068G   26035.92845876  .00000004  00000-0 -40342-4 0  9993
2 22188  82.6009 178.1587 0046047  56.7044  63.7651 12.54918312525019
Epoch: 2026-02-04T22:16Z
TLE epoch observation values (Epoch: 2026-02-04T22:16:58.836Z)
Latitude
58.35886°
Longitude
-123.27974°
Altitude
1,437.998 km
Speed
7.155 km/s
True Right ascension
23h 04m 12s
True Declination
58° 13' 06"
Sunlit
Object was in daylight at epoch
Visualization orbit readout
Latitude
Unknown
Longitude
Unknown
Altitude
Unknown
Speed
Unknown
Apparent Right ascension
Unknown
Apparent Declination
Unknown
Sunlit
N/A
Visualization observer readout
Local Sidereal Time
15:19:08
Azimuth
Unknown
Elevation
Unknown
Doppler factor
Unknown
Orbital elements
Apogee altitude
1,477.327 km
Perigee altitude
1,405.314 km
Semi-major axis
7,819.457 km
Eccentricity
0.0046
Inclination
82.6009°
RAAN
178.1587°
Arg. of periapsis
56.7044°
True anomaly
64.23961°
Mean anomaly
63.7651°
Eccentric anomaly
64.00223°
Mean motion
3.13891 °/min
Orbital period
114.69 mins
BSTAR
-0.000040342
Loading maneuver chart data...
Computing Atmospheric mass density...
Loading historical data...
Loading historical data...
Loading historical data...
Loading historical data...
Loading historical data...
Loading historical data...
Loading historical data...

Documentation

Showing up to 5 results
|